COSMOS 2251 DEB, 35888

Orbit data source: Space-Track

COSMOS 2251 DEB, 35888 is space debris in LEO originally from a launch on Wed, 16 Jun 1993 UTC launched from the Plesetsk Missile And Space Complex (PKMTR). The debris from Iridium 33, an American commercial communications satellite, has been tracked extensively since its accidental collision with the defunct Russian satellite Cosmos 2251 in 2009. This event, occurring at high speed in low Earth orbit (LEO), generated thousands of pieces of space debris, significantly increasing the risk of further collisions. The Iridium 33 debris cloud has impacted space traffic management and orbital debris mitigation strategies, making it a subject of ongoing study in space situational awareness.

Loading next visibility...
Identifier
35888, 1993-036AUB
Orbit
LEO
Country
Flag of CISCIS
Related business
Manufacturer
Unknown
Mission
Spacecraft
Bus & Motor
Unknown
Mass
Unknown
Launch date (UTC)
1993-06-16 (33 years ago)
Launch vehicle
Unknown
Launch site
Plesetsk Missile And Space Complex (PKMTR)
Object type
Payload
Rocket body
Debris
Shape & HBR
Unknown shape, 0.1 m
Radar Cross Section
Small (<0.1 m²)

Expand to show TLE details & history
Last TLE update: 1 day ago

TLE from 1 day ago
0 COSMOS 2251 DEB
1 35888U 93036AUB 26144.45620292  .00001094  00000-0  23585-3 0  9990
2 35888  74.0333  46.7624 0049415 137.9776 222.5197 14.58927874886461
Epoch: 2026-05-24T10:56Z
TLE epoch observation values (Epoch: 2026-05-24T10:56:55.932Z)
Latitude
-0.00001°
Longitude
0.47126°
Altitude
725.127 km
Speed
7.479 km/s
True Right ascension
03h 07m 02s
True Declination
0° 00' 00"
Sunlit
Object was in daylight at epoch
Visualization orbit readout
Latitude
Unknown
Longitude
Unknown
Altitude
Unknown
Speed
Unknown
Apparent Right ascension
Unknown
Apparent Declination
Unknown
Sunlit
N/A
Visualization observer readout
Local Sidereal Time
21:43:11
Azimuth
Unknown
Elevation
Unknown
Doppler factor
Unknown
Orbital elements
Apogee altitude
729.185 km
Perigee altitude
659.289 km
Semi-major axis
7,072.374 km
Eccentricity
0.00494
Inclination
74.0333°
RAAN
46.7624°
Arg. of periapsis
137.9776°
True anomaly
222.13874°
Mean anomaly
222.5197°
Eccentric anomaly
222.32905°
Mean motion
3.64918 °/min
Orbital period
98.65 mins
BSTAR
0.00023585
Loading maneuver chart data...
Computing Atmospheric mass density...
Loading historical data...
Loading historical data...
Loading historical data...
Loading historical data...
Loading historical data...
Loading historical data...
Loading historical data...

Documentation

Showing up to 5 results
|